SCP
0 0 0 0 0 0 0 0 0 0 0 0 0 0 0 0 0 0 0 0 0 0 0 0 0 0 0 0 0 0 0 0 0 0 0 0 0 0 0 0 0 0 0
0 0 0 0 0 0 0 0 0 0 0 0 0 0 0 0 0 0 0 0 0 0 0 0 0 0 0 0 0 0 0 0 0 0 0 0 0 0 0 0 0 0 0
0 0 0 0 0 0 0 0 0 0 0 0 0 0 0 0 0 0 0 0 0 0 0 0 0 0 0 0 0 0 0 0 0 0 0 0 0 0 0 0 -0 0 0
0 0 0 0 0 0 0 0 0 0 0 0 0 0 1 0 0 0 0 0 0 0 0 0 0 0 0 0 0 0 0 0 0 0 0 0 0 0 0 0 -0 0 0
0 0 0 0 0 0 0 0 0 0 0 0 0 0 0 0 0 0 0 0 0 0 0 0 0 0 0 0 0 0 0 0 0 0 0 0 0 0 0 0 0 0 0
0 0 0 0 0 0 0 0 0 0 0 0 0 0 0 0 0 0 0 0 0 0 0 0 0 0 0 0 0 0 0 0 0 -0 0 0 0 0 0 0 0 0 0
0 0 0 0 0 0 0 0 0 0 0 0 0 0 0 0 0 0 0 0 0 0 0 0 0 0 0 0 0 0 0 0 0 0 0 0 0 0 0 0 0 0 0
0 0 0 0 0 0 0 0 0 0 0 0 0 0 0 0 0 0 0 0 0 0 0 0 0 0 0 0 0 0 0 0 0 0 0 0 0 0 0 0 0 0 0
0 0 0 0 0 0 0 0 0 0 0 0 0 0 0 0 0 0 0 0 0 0 0 0 0 0 0 0 0 0 0 0 0 1 1 0 0 0 0 0 0 0 0
0 0 0 0 0 0 0 0 0 0 0 0 0 0 0 0 0 0 0 0 0 0 0 0 0 0 0 0 0 0 0 0 0 0 1 0 0 0 1 0 0 0 0
0 0 0 0 0 0 0 0 0 0 0 0 0 0 0 0 0 0 0 0 0 0 0 0 0 0 0 0 0 0 0 0 0 0 0 0 0 0 0 1 1 1 1
0 0 0 0 0 0 0 0 0 0 0 0 0 0 0 0 0 0 0 0 0 0 0 0 0 0 0 0 0 0 0 0 0 0 0 0 0 0 0 0 0 0 1
0 0 0 0 0 0 0 0 0 0 0 0 0 0 0 0 0 0 0 0 0 0 0 0 0 0 0 0 0 0 0 0 0 0 0 0 0 0 0 0 0 0 0
0 0 0 0 0 0 0 0 0 0 0 0 0 0 0 0 0 0 0 0 0 0 0 0 0 0 0 0 0 0 0 0 0 0 0 0 0 0 0 0 0 0 0
0 0 0 0 0 0 0 0 0 0 0 0 0 0 0 0 0 0 0 0 0 0 0 0 0 0 0 0 0 0 0 0 0 0 0 0 0 0 0 0 0 0 0
0 0 0 0 0 0 0 0 0 0 0 0 0 0 0 0 0 0 0 0 0 0 0 0 0 0 0 0 0 0 0 0 0 0 0 0 0 0 0 0 0 0 0
0 0 0 0 0 0 0 0 0 0 0 0 0 0 0 0 0 0 0 0 0 0 0 0 0 0 0 0 0 0 0 0 0 0 0 0 0 0 0 0 0 0 0
0 0 0 0 0 0 0 0 0 0 0 0 0 0 0 0 0 0 0 0 0 0 0 0 0 0 0 0 0 0 0 0 0 0 0 0 0 0 0 0 0 0 0
0 0 0 0 0 0 0 0 0 0 0 0 0 0 0 0 0 0 0 0 0 0 0 0 0 0 0 0 0 0 0 0 0 0 0 0 0 0 0 0 0 0 0
0 0 0 0 0 0 0 0 0 0 0 0 0 0 0 0 0 0 0 0 0 0 0 0 0 0 0 0 0 0 0 0 0 0 0 0 0 0 0 0 0 0 0
0 0 0 0 0 0 0 0 0 0 0 0 0 0 0 0 0 0 0 0 0 0 0 0 0 0 0 0 0 0 0 0 0 0 0 0 0 0 0 0 0 0 0
0 0 0 0 0 0 0 0 0 0 0 0 0 0 0 0 0 0 0 0 0 0 0 0 0 0 0 0 0 0 0 0 0 0 0 0 0 0 0 0 0 0 0
0 0 0 0 0 0 0 0 0 0 0 0 0 0 0 0 0 0 0 0 0 0 0 0 0 0 0 0 0 0 0 0 0 0 0 0 0 0 0 0 0 0 0
0 0 0 0 0 0 0 0 0 0 0 0 0 0 0 0 0 0 0 0 0 0 0 0 0 0 0 0 0 0 0 0 0 0 0 0 0 0 0 0 0 0 0
0 0 0 0 0 0 0 0 0 0 0 0 0 0 0 0 0 0 0 0 0 0 0 0 0 0 0 0 0 0 0 0 0 0 0 0 0 0 0 0 0 0 0
0 0 0 0 0 0 0 0 0 0 0 0 0 0 0 0 0 0 0 0 0 0 0 0 0 0 0 0 0 0 0 0 0 0 0 0 0 0 0 0 0 0 0
Wind_Speed_500mb
28 28 27 27 26 21 20 19 18 16 15 14 13 13 12 11 11 9 8 7 7 6 5 5 8 7 6 6 5 4 3 3 4 4 3 3 2 3 4 5 8 9 6
34 34 32 27 26 23 21 20 17 16 14 13 11 10 9 9 9 8 9 9 9 8 8 7 8 8 8 8 8 6 4 6 6 5 5 5 4 4 6 4 4 6 6
38 32 30 29 26 26 23 20 18 16 14 13 13 11 10 9 8 8 9 10 10 10 11 11 11 11 11 10 10 9 8 8 9 7 3 1 4 5 7 6 6 6 7
34 31 29 26 25 24 22 19 16 14 12 11 9 8 8 10 11 11 10 15 14 15 15 15 16 16 15 13 12 11 11 10 11 10 5 10 8 20 16 8 7 7 7
31 28 28 26 24 22 20 18 15 14 11 10 10 11 11 12 14 15 15 15 16 18 19 20 20 21 21 20 17 16 15 14 13 12 12 13 10 17 10 12 8 9 7
33 27 24 23 22 21 21 17 15 12 12 11 12 11 12 14 15 16 17 18 19 20 20 20 21 23 24 26 26 23 21 20 17 11 17 18 19 23 18 19 14 13 11
33 26 18 20 21 22 19 15 13 12 12 11 10 10 11 12 13 14 18 19 21 22 23 23 24 25 27 29 30 31 30 28 23 16 19 19 18 25 24 21 20 20 17
27 22 17 19 29 24 16 15 15 15 15 13 12 10 10 11 12 14 17 19 22 24 25 25 25 27 27 29 32 34 35 35 30 20 24 21 31 31 31 27 26 22 25
25 19 18 16 19 17 15 13 13 11 9 8 8 8 10 12 15 17 19 22 24 25 25 27 27 28 29 30 31 33 38 41 38 26 28 20 39 38 36 36 33 33 27
19 16 18 19 15 11 8 10 9 8 7 6 6 9 11 14 16 18 20 20 23 26 29 29 29 31 33 32 34 35 35 37 36 43 41 44 47 39 39 40 41 39 37
19 19 17 15 11 7 5 3 4 6 7 7 8 9 10 11 13 16 17 20 21 22 24 27 28 28 27 30 33 34 35 31 38 26 35 49 48 46 45 46 46 42 42
22 20 19 17 13 9 8 6 4 4 5 5 6 5 6 8 10 14 16 19 21 23 24 24 24 25 26 26 27 27 28 37 36 34 26 44 45 48 48 50 48 45 44
27 23 20 18 15 13 10 6 5 5 5 4 4 4 6 8 11 13 16 19 21 21 23 25 26 26 25 24 24 24 25 26 28 33 34 50 48 48 46 47 47 45 46
25 23 20 18 14 10 7 7 7 6 5 4 4 4 6 9 12 15 18 19 21 22 22 23 24 25 26 27 28 27 25 25 27 25 30 43 47 49 49 48 51 49 46
23 19 14 10 7 6 7 6 6 5 5 6 6 6 8 11 13 16 18 20 21 22 23 24 25 26 26 27 28 28 29 29 27 24 14 34 37 43 48 53 54 54 51
23 18 13 8 6 7 7 7 6 7 6 4 5 7 9 12 15 17 19 20 22 23 23 24 26 25 26 25 27 28 27 24 25 20 9 22 26 31 37 44 51 56 57
25 17 11 7 7 8 7 7 7 4 2 3 6 9 11 13 14 16 18 20 21 23 24 25 25 26 25 26 25 25 23 18 13 12 8 5 13 22 20 25 34 46 57
25 18 10 6 8 9 8 7 4 4 4 6 9 11 13 14 16 17 19 22 23 25 25 26 24 23 23 23 23 22 19 13 11 8 9 9 11 11 21 15 19 24 35
24 16 11 11 12 9 7 7 6 5 5 7 9 12 14 17 18 18 19 21 21 20 21 22 23 25 25 26 22 18 13 7 4 6 9 11 17 16 16 21 19 22 26
25 20 19 18 16 15 13 9 7 7 7 7 10 14 18 20 20 19 20 20 20 21 21 22 21 22 25 29 19 15 8 5 2 5 10 11 18 20 19 18 16 18 20
30 26 22 20 18 15 11 9 6 3 7 11 12 14 16 17 18 19 21 22 21 21 23 25 26 25 25 27 15 13 10 10 8 6 13 17 24 22 20 18 18 17 18
32 28 25 22 19 16 12 11 9 6 7 8 11 12 12 14 14 13 13 15 16 17 20 22 22 19 19 23 19 13 9 11 8 13 9 16 27 20 19 19 19 22 22
35 31 27 23 20 18 16 13 11 9 7 5 7 11 11 12 13 13 14 16 17 17 19 21 21 21 18 18 20 12 10 8 24 7 11 16 22 20 20 22 23 23 24
34 32 27 24 20 17 14 12 11 7 7 6 4 9 12 12 13 14 15 16 17 17 19 22 23 19 17 17 10 16 10 11 9 12 13 17 21 22 23 22 26 30 31
35 32 28 23 19 17 15 14 11 10 9 7 7 7 7 10 12 13 14 15 17 19 21 22 21 19 18 17 17 16 11 9 16 10 18 24 20 18 19 23 25 33 34
34 32 30 26 21 18 17 18 16 14 12 8 6 1 3 6 10 11 13 16 17 18 18 17 19 19 19 19 17 17 16 9 14 13 17 28 23 19 13 19 24 35 36
Wind_Direction_500mb
158 157 148 150 157 164 163 157 155 154 153 153 154 161 166 169 177 186 194 208 214 215 230 250 272 282 295 303 314 337 330 309 311 307 341 344 319 44 15 30 16 11 323
164 164 159 152 158 161 168 168 166 165 164 166 167 173 182 195 207 216 227 230 236 237 240 248 265 282 291 300 301 306 296 267 256 269 313 322 302 314 341 351 12 264 310
164 160 161 166 168 170 171 171 175 177 181 181 181 186 199 213 228 242 247 255 259 262 260 259 266 277 284 293 301 307 297 279 274 268 279 350 224 295 317 307 319 314 324
165 163 160 163 178 179 178 180 182 188 193 190 175 155 192 215 221 231 246 255 261 266 264 266 268 270 275 278 284 285 284 279 274 274 293 259 275 288 268 292 294 298 308
169 168 170 175 190 186 186 191 194 199 207 211 222 223 218 225 234 253 282 281 277 280 280 281 282 280 280 280 279 277 275 271 267 269 264 265 263 276 261 269 276 280 302
166 172 173 189 205 202 199 200 208 212 221 224 230 244 260 268 270 278 282 278 280 282 287 285 283 282 281 280 278 276 272 269 266 285 268 266 258 259 267 251 254 261 272
171 172 180 220 234 220 211 208 213 227 229 228 235 240 252 265 281 295 296 297 296 295 293 290 286 281 277 276 277 279 276 271 264 262 274 269 267 262 258 259 258 258 264
166 165 193 228 216 216 202 194 193 206 206 211 225 235 246 264 277 284 288 293 298 299 299 297 294 290 285 278 271 269 271 271 269 269 266 267 261 261 259 255 257 267 260
167 179 213 200 191 197 197 193 201 207 216 224 238 257 279 291 294 295 294 299 302 302 302 301 297 293 291 288 282 277 271 269 266 254 240 256 257 256 255 259 254 259 270
175 198 194 189 186 194 195 212 217 221 220 226 255 272 283 292 298 304 308 311 310 311 311 309 304 300 292 284 283 281 277 276 272 261 257 249 249 254 250 253 257 257 255
183 202 197 192 193 200 213 230 240 246 257 268 277 283 290 297 307 313 316 317 317 316 315 316 317 313 305 296 289 283 279 277 273 278 266 257 258 257 256 254 252 251 253
196 200 202 202 201 206 222 238 239 246 250 263 271 285 303 315 321 321 323 325 326 326 324 321 319 316 314 310 302 292 278 275 278 266 266 267 261 260 256 257 256 252 247
188 196 199 203 206 212 224 227 240 256 259 267 293 314 324 329 332 333 331 329 327 326 324 322 321 319 314 310 308 304 294 283 274 276 267 269 266 264 261 257 256 255 249
171 186 196 205 210 215 211 216 230 236 253 283 293 313 334 338 335 333 331 330 328 326 325 323 320 318 317 314 311 309 303 295 287 281 278 275 270 264 260 259 259 254 250
168 180 187 199 212 221 224 239 256 267 271 275 288 313 330 331 329 329 329 330 330 330 328 326 324 322 319 315 310 307 305 301 297 291 295 284 273 268 264 259 256 249 250
172 182 186 195 216 228 238 234 225 226 238 279 328 341 342 341 340 339 336 336 336 334 333 333 330 327 322 319 314 308 304 301 298 298 300 303 293 280 271 263 258 256 250
171 179 180 198 220 232 233 225 230 242 286 326 329 340 345 345 341 339 338 338 338 339 341 340 339 335 329 326 319 313 310 304 307 309 315 324 335 324 298 287 273 260 257
169 173 178 204 221 217 221 220 233 255 286 320 335 339 340 342 345 346 344 342 342 342 342 341 342 342 337 335 329 319 308 299 298 317 329 339 322 335 342 309 299 289 272
169 176 190 209 212 216 223 226 244 275 309 325 332 336 339 343 347 349 344 341 342 344 343 346 345 343 341 338 335 325 318 309 328 331 312 322 326 333 337 327 310 297 289
177 183 192 198 202 202 210 218 242 266 285 305 327 341 345 344 346 349 346 346 347 346 344 343 343 343 339 335 332 324 295 279 325 347 346 336 339 334 334 333 343 338 301
185 186 188 192 196 194 184 159 151 193 315 336 337 341 342 344 347 350 349 348 348 347 347 346 348 344 339 338 341 317 284 283 298 320 337 347 345 344 345 355 354 349 341
187 187 190 193 197 182 177 185 199 229 262 291 319 324 330 336 341 347 350 349 349 349 345 344 350 359 352 349 346 321 285 268 316 307 347 354 348 0 2 0 356 353 353
184 191 190 192 192 193 209 232 243 261 288 333 327 323 331 337 344 349 353 354 353 354 354 356 3 4 5 2 13 14 323 314 330 320 346 357 359 10 16 18 7 1 357
186 191 192 194 196 210 212 207 196 194 191 208 266 311 327 339 347 357 356 357 1 6 4 6 9 14 29 13 11 23 19 16 346 319 332 354 9 15 11 23 19 12 8
189 191 193 191 192 208 201 192 192 188 213 223 254 286 320 343 349 351 355 2 7 13 13 15 20 24 30 34 25 22 6 353 2 326 310 332 352 5 13 13 22 14 9
182 185 189 187 196 204 205 207 195 193 193 185 197 159 337 343 348 358 7 13 20 22 25 27 32 31 38 40 37 29 28 26 356 4 324 337 341 349 8 10 12 10 7
Wind_Speed_850mb
28 28 27 27 26 21 20 19 18 16 15 14 13 13 12 11 11 9 8 7 7 6 5 5 8 7 6 6 5 4 3 3 4 4 3 3 2 3 4 5 8 9 6
34 34 32 27 26 23 21 20 17 16 14 13 11 10 9 9 9 8 9 9 9 8 8 7 8 8 8 8 8 6 4 6 6 5 5 5 4 4 6 4 4 6 6
38 32 30 29 26 26 23 20 18 16 14 13 13 11 10 9 8 8 9 10 10 10 11 11 11 11 11 10 10 9 8 8 9 7 3 1 4 5 7 6 6 6 7
34 31 29 26 25 24 22 19 16 14 12 11 9 8 8 10 11 11 10 15 14 15 15 15 16 16 15 13 12 11 11 10 11 10 5 10 8 20 16 8 7 7 7
31 28 28 26 24 22 20 18 15 14 11 10 10 11 11 12 14 15 15 15 16 18 19 20 20 21 21 20 17 16 15 14 13 12 12 13 10 17 10 12 8 9 7
33 27 24 23 22 21 21 17 15 12 12 11 12 11 12 14 15 16 17 18 19 20 20 20 21 23 24 26 26 23 21 20 17 11 17 18 19 23 18 19 14 13 11
33 26 18 20 21 22 19 15 13 12 12 11 10 10 11 12 13 14 18 19 21 22 23 23 24 25 27 29 30 31 30 28 23 16 19 19 18 25 24 21 20 20 17
27 22 17 19 29 24 16 15 15 15 15 13 12 10 10 11 12 14 17 19 22 24 25 25 25 27 27 29 32 34 35 35 30 20 24 21 31 31 31 27 26 22 25
25 19 18 16 19 17 15 13 13 11 9 8 8 8 10 12 15 17 19 22 24 25 25 27 27 28 29 30 31 33 38 41 38 26 28 20 39 38 36 36 33 33 27
19 16 18 19 15 11 8 10 9 8 7 6 6 9 11 14 16 18 20 20 23 26 29 29 29 31 33 32 34 35 35 37 36 43 41 44 47 39 39 40 41 39 37
19 19 17 15 11 7 5 3 4 6 7 7 8 9 10 11 13 16 17 20 21 22 24 27 28 28 27 30 33 34 35 31 38 26 35 49 48 46 45 46 46 42 42
22 20 19 17 13 9 8 6 4 4 5 5 6 5 6 8 10 14 16 19 21 23 24 24 24 25 26 26 27 27 28 37 36 34 26 44 45 48 48 50 48 45 44
27 23 20 18 15 13 10 6 5 5 5 4 4 4 6 8 11 13 16 19 21 21 23 25 26 26 25 24 24 24 25 26 28 33 34 50 48 48 46 47 47 45 46
25 23 20 18 14 10 7 7 7 6 5 4 4 4 6 9 12 15 18 19 21 22 22 23 24 25 26 27 28 27 25 25 27 25 30 43 47 49 49 48 51 49 46
23 19 14 10 7 6 7 6 6 5 5 6 6 6 8 11 13 16 18 20 21 22 23 24 25 26 26 27 28 28 29 29 27 24 14 34 37 43 48 53 54 54 51
23 18 13 8 6 7 7 7 6 7 6 4 5 7 9 12 15 17 19 20 22 23 23 24 26 25 26 25 27 28 27 24 25 20 9 22 26 31 37 44 51 56 57
25 17 11 7 7 8 7 7 7 4 2 3 6 9 11 13 14 16 18 20 21 23 24 25 25 26 25 26 25 25 23 18 13 12 8 5 13 22 20 25 34 46 57
25 18 10 6 8 9 8 7 4 4 4 6 9 11 13 14 16 17 19 22 23 25 25 26 24 23 23 23 23 22 19 13 11 8 9 9 11 11 21 15 19 24 35
24 16 11 11 12 9 7 7 6 5 5 7 9 12 14 17 18 18 19 21 21 20 21 22 23 25 25 26 22 18 13 7 4 6 9 11 17 16 16 21 19 22 26
25 20 19 18 16 15 13 9 7 7 7 7 10 14 18 20 20 19 20 20 20 21 21 22 21 22 25 29 19 15 8 5 2 5 10 11 18 20 19 18 16 18 20
30 26 22 20 18 15 11 9 6 3 7 11 12 14 16 17 18 19 21 22 21 21 23 25 26 25 25 27 15 13 10 10 8 6 13 17 24 22 20 18 18 17 18
32 28 25 22 19 16 12 11 9 6 7 8 11 12 12 14 14 13 13 15 16 17 20 22 22 19 19 23 19 13 9 11 8 13 9 16 27 20 19 19 19 22 22
35 31 27 23 20 18 16 13 11 9 7 5 7 11 11 12 13 13 14 16 17 17 19 21 21 21 18 18 20 12 10 8 24 7 11 16 22 20 20 22 23 23 24
34 32 27 24 20 17 14 12 11 7 7 6 4 9 12 12 13 14 15 16 17 17 19 22 23 19 17 17 10 16 10 11 9 12 13 17 21 22 23 22 26 30 31
35 32 28 23 19 17 15 14 11 10 9 7 7 7 7 10 12 13 14 15 17 19 21 22 21 19 18 17 17 16 11 9 16 10 18 24 20 18 19 23 25 33 34
34 32 30 26 21 18 17 18 16 14 12 8 6 1 3 6 10 11 13 16 17 18 18 17 19 19 19 19 17 17 16 9 14 13 17 28 23 19 13 19 24 35 36
Wind_Direction_850mb
158 157 148 150 157 164 163 157 155 154 153 153 154 161 166 169 177 186 194 208 214 215 230 250 272 282 295 303 314 337 330 309 311 307 341 344 319 44 15 30 16 11 323
164 164 159 152 158 161 168 168 166 165 164 166 167 173 182 195 207 216 227 230 236 237 240 248 265 282 291 300 301 306 296 267 256 269 313 322 302 314 341 351 12 264 310
164 160 161 166 168 170 171 171 175 177 181 181 181 186 199 213 228 242 247 255 259 262 260 259 266 277 284 293 301 307 297 279 274 268 279 350 224 295 317 307 319 314 324
165 163 160 163 178 179 178 180 182 188 193 190 175 155 192 215 221 231 246 255 261 266 264 266 268 270 275 278 284 285 284 279 274 274 293 259 275 288 268 292 294 298 308
169 168 170 175 190 186 186 191 194 199 207 211 222 223 218 225 234 253 282 281 277 280 280 281 282 280 280 280 279 277 275 271 267 269 264 265 263 276 261 269 276 280 302
166 172 173 189 205 202 199 200 208 212 221 224 230 244 260 268 270 278 282 278 280 282 287 285 283 282 281 280 278 276 272 269 266 285 268 266 258 259 267 251 254 261 272
171 172 180 220 234 220 211 208 213 227 229 228 235 240 252 265 281 295 296 297 296 295 293 290 286 281 277 276 277 279 276 271 264 262 274 269 267 262 258 259 258 258 264
166 165 193 228 216 216 202 194 193 206 206 211 225 235 246 264 277 284 288 293 298 299 299 297 294 290 285 278 271 269 271 271 269 269 266 267 261 261 259 255 257 267 260
167 179 213 200 191 197 197 193 201 207 216 224 238 257 279 291 294 295 294 299 302 302 302 301 297 293 291 288 282 277 271 269 266 254 240 256 257 256 255 259 254 259 270
175 198 194 189 186 194 195 212 217 221 220 226 255 272 283 292 298 304 308 311 310 311 311 309 304 300 292 284 283 281 277 276 272 261 257 249 249 254 250 253 257 257 255
183 202 197 192 193 200 213 230 240 246 257 268 277 283 290 297 307 313 316 317 317 316 315 316 317 313 305 296 289 283 279 277 273 278 266 257 258 257 256 254 252 251 253
196 200 202 202 201 206 222 238 239 246 250 263 271 285 303 315 321 321 323 325 326 326 324 321 319 316 314 310 302 292 278 275 278 266 266 267 261 260 256 257 256 252 247
188 196 199 203 206 212 224 227 240 256 259 267 293 314 324 329 332 333 331 329 327 326 324 322 321 319 314 310 308 304 294 283 274 276 267 269 266 264 261 257 256 255 249
171 186 196 205 210 215 211 216 230 236 253 283 293 313 334 338 335 333 331 330 328 326 325 323 320 318 317 314 311 309 303 295 287 281 278 275 270 264 260 259 259 254 250
168 180 187 199 212 221 224 239 256 267 271 275 288 313 330 331 329 329 329 330 330 330 328 326 324 322 319 315 310 307 305 301 297 291 295 284 273 268 264 259 256 249 250
172 182 186 195 216 228 238 234 225 226 238 279 328 341 342 341 340 339 336 336 336 334 333 333 330 327 322 319 314 308 304 301 298 298 300 303 293 280 271 263 258 256 250
171 179 180 198 220 232 233 225 230 242 286 326 329 340 345 345 341 339 338 338 338 339 341 340 339 335 329 326 319 313 310 304 307 309 315 324 335 324 298 287 273 260 257
169 173 178 204 221 217 221 220 233 255 286 320 335 339 340 342 345 346 344 342 342 342 342 341 342 342 337 335 329 319 308 299 298 317 329 339 322 335 342 309 299 289 272
169 176 190 209 212 216 223 226 244 275 309 325 332 336 339 343 347 349 344 341 342 344 343 346 345 343 341 338 335 325 318 309 328 331 312 322 326 333 337 327 310 297 289
177 183 192 198 202 202 210 218 242 266 285 305 327 341 345 344 346 349 346 346 347 346 344 343 343 343 339 335 332 324 295 279 325 347 346 336 339 334 334 333 343 338 301
185 186 188 192 196 194 184 159 151 193 315 336 337 341 342 344 347 350 349 348 348 347 347 346 348 344 339 338 341 317 284 283 298 320 337 347 345 344 345 355 354 349 341
187 187 190 193 197 182 177 185 199 229 262 291 319 324 330 336 341 347 350 349 349 349 345 344 350 359 352 349 346 321 285 268 316 307 347 354 348 0 2 0 356 353 353
184 191 190 192 192 193 209 232 243 261 288 333 327 323 331 337 344 349 353 354 353 354 354 356 3 4 5 2 13 14 323 314 330 320 346 357 359 10 16 18 7 1 357
186 191 192 194 196 210 212 207 196 194 191 208 266 311 327 339 347 357 356 357 1 6 4 6 9 14 29 13 11 23 19 16 346 319 332 354 9 15 11 23 19 12 8
189 191 193 191 192 208 201 192 192 188 213 223 254 286 320 343 349 351 355 2 7 13 13 15 20 24 30 34 25 22 6 353 2 326 310 332 352 5 13 13 22 14 9
182 185 189 187 196 204 205 207 195 193 193 185 197 159 337 343 348 358 7 13 20 22 25 27 32 31 38 40 37 29 28 26 356 4 324 337 341 349 8 10 12 10 7